IWG002 LEMH-LEGR

Flight info

Callsign IWG002
Flight time 1h 21m
Altitude 31000
Route EPAMA N733 VLC M985 VIBAS
Aircraft A20N/M-SDE2E3FGHIJ1RWXY/LB1

Departure

Time 2026-05-06 09:16
Airport Menorca Airport (LEMH)

Arrival

Time 2026-05-06 10:37
Airport F.G.L. Airport Granada-Jaén Airport (LEGR)
Time Latitude Longitude Altitude Speed Heading
2026-05-06 09:06 39.86254 4.22194 302 ft 0 kts 289°
2026-05-06 09:12 39.86256 4.22186 299 ft 7 kts 288°
2026-05-06 09:12 39.86211 4.22102 300 ft 13 kts 172°
2026-05-06 09:13 39.86049 4.22061 298 ft 29 kts 191°
2026-05-06 09:13 39.85842 4.22019 295 ft 31 kts 189°
2026-05-06 09:13 39.85625 4.21974 292 ft 33 kts 188°
2026-05-06 09:13 39.85396 4.21925 293 ft 33 kts 190°
2026-05-06 09:14 39.85178 4.21876 288 ft 25 kts 202°
2026-05-06 09:14 39.85137 4.21762 287 ft 0 kts 275°
2026-05-06 09:14 39.85137 4.21760 287 ft 1 kts 275°
2026-05-06 09:14 39.85137 4.21759 287 ft 0 kts 276°
2026-05-06 09:15 39.85137 4.21757 287 ft 2 kts 276°
2026-05-06 09:15 39.85160 4.21673 286 ft 14 kts 315°
2026-05-06 09:15 39.85352 4.21681 288 ft 59 kts 10°
2026-05-06 09:15 39.85982 4.21811 300 ft 122 kts
2026-05-06 09:16 39.86975 4.22033 424 ft 156 kts 10°
2026-05-06 09:16 39.87960 4.22444 994 ft 152 kts 17°
2026-05-06 09:16 39.88959 4.22947 1514 ft 155 kts 15°
2026-05-06 09:16 39.89994 4.23315 2129 ft 156 kts
2026-05-06 09:17 39.91068 4.23251 2700 ft 160 kts 341°
2026-05-06 09:17 39.92082 4.22475 3016 ft 182 kts 312°
2026-05-06 09:17 39.92719 4.20979 3471 ft 201 kts 280°
2026-05-06 09:17 39.92551 4.19109 3986 ft 219 kts 245°
2026-05-06 09:18 39.91619 4.17455 4499 ft 241 kts 222°
2026-05-06 09:18 39.90273 4.15991 5059 ft 260 kts 218°
2026-05-06 09:18 39.88846 4.14499 5916 ft 264 kts 220°
2026-05-06 09:18 39.87453 4.12920 6878 ft 266 kts 223°
2026-05-06 09:19 39.86102 4.11263 7830 ft 267 kts 224°
2026-05-06 09:19 39.84763 4.09573 8752 ft 268 kts 226°
2026-05-06 09:19 39.83454 4.07857 9649 ft 271 kts 226°
2026-05-06 09:19 39.82116 4.06081 10409 ft 278 kts 225°
2026-05-06 09:20 39.80706 4.04250 10717 ft 300 kts 221°
2026-05-06 09:20 39.79119 4.02330 10984 ft 319 kts 223°
2026-05-06 09:20 39.77515 4.00301 11772 ft 321 kts 225°
2026-05-06 09:20 39.75913 3.98253 12608 ft 323 kts 225°
2026-05-06 09:21 39.74345 3.96203 13432 ft 324 kts 226°
2026-05-06 09:21 39.72736 3.94121 14141 ft 327 kts 226°
2026-05-06 09:21 39.71138 3.91990 14802 ft 331 kts 228°
2026-05-06 09:21 39.69537 3.89801 15462 ft 334 kts 229°
2026-05-06 09:22 39.67926 3.87638 16108 ft 338 kts 227°
2026-05-06 09:22 39.66330 3.85559 16728 ft 342 kts 225°
2026-05-06 09:22 39.64629 3.83425 17354 ft 345 kts 226°
2026-05-06 09:22 39.62897 3.81227 17989 ft 349 kts 225°
2026-05-06 09:23 39.61140 3.79021 18567 ft 352 kts 225°
2026-05-06 09:23 39.59382 3.76783 19140 ft 354 kts 222°
2026-05-06 09:23 39.57601 3.74557 19709 ft 356 kts 226°
2026-05-06 09:23 39.55845 3.72308 20275 ft 359 kts 225°
2026-05-06 09:24 39.54060 3.70022 20829 ft 361 kts 224°
2026-05-06 09:24 39.52244 3.67751 21366 ft 364 kts 226°
2026-05-06 09:24 39.50436 3.65433 21910 ft 366 kts 224°
2026-05-06 09:24 39.48589 3.63145 22404 ft 369 kts 224°
2026-05-06 09:25 39.46775 3.60776 22986 ft 370 kts 227°
2026-05-06 09:25 39.45089 3.58241 23485 ft 373 kts 236°
2026-05-06 09:25 39.43943 3.55275 23946 ft 375 kts 253°
2026-05-06 09:25 39.43500 3.51923 24329 ft 383 kts 266°
2026-05-06 09:26 39.43687 3.48474 24812 ft 387 kts 276°
2026-05-06 09:26 39.44133 3.45018 25228 ft 391 kts 278°
2026-05-06 09:26 39.44603 3.41542 25645 ft 392 kts 276°
2026-05-06 09:26 39.45000 3.38051 26070 ft 393 kts 275°
2026-05-06 09:27 39.45337 3.34532 26490 ft 395 kts 272°
2026-05-06 09:27 39.45606 3.30988 26894 ft 396 kts 271°
2026-05-06 09:27 39.45863 3.27429 27302 ft 398 kts 271°
2026-05-06 09:27 39.46135 3.23852 27688 ft 400 kts 272°
2026-05-06 09:28 39.46450 3.20256 28053 ft 403 kts 274°
2026-05-06 09:28 39.46793 3.16642 28407 ft 405 kts 275°
2026-05-06 09:28 39.47135 3.13012 28764 ft 407 kts 269°
2026-05-06 09:28 39.47290 3.10597 28961 ft 407 kts 270°
2026-05-06 09:29 39.47574 3.05692 29371 ft 409 kts 269°
2026-05-06 09:29 39.47732 3.03256 29611 ft 410 kts 271°
2026-05-06 09:29 39.48104 2.98369 30008 ft 413 kts 269°
2026-05-06 09:29 39.48375 2.94658 30294 ft 414 kts 268°
2026-05-06 09:30 39.48644 2.90934 30560 ft 415 kts 269°
2026-05-06 09:30 39.48837 2.88464 30761 ft 416 kts 269°
2026-05-06 09:30 39.49126 2.84731 30924 ft 417 kts 269°
2026-05-06 09:31 39.49734 2.77288 30941 ft 415 kts 270°
2026-05-06 09:31 39.50351 2.69856 30938 ft 415 kts 270°
2026-05-06 09:32 39.50936 2.62434 30944 ft 414 kts 269°
2026-05-06 09:32 39.51529 2.55010 30940 ft 413 kts 270°
2026-05-06 09:33 39.52127 2.47605 30945 ft 413 kts 271°
2026-05-06 09:33 39.52750 2.40247 30953 ft 413 kts 271°
2026-05-06 09:34 39.53346 2.32855 30949 ft 411 kts 271°
2026-05-06 09:34 39.53928 2.25494 30955 ft 411 kts 272°
2026-05-06 09:35 39.54527 2.18135 30957 ft 410 kts 272°
2026-05-06 09:35 39.55106 2.10794 30964 ft 409 kts 271°
2026-05-06 09:36 39.55716 2.03458 30932 ft 408 kts 279°
2026-05-06 09:36 39.56504 1.96238 30966 ft 408 kts 277°
2026-05-06 09:37 39.57048 1.88895 30966 ft 407 kts 276°
2026-05-06 09:37 39.57596 1.81571 30966 ft 407 kts 275°
2026-05-06 09:38 39.58115 1.74264 30963 ft 406 kts 275°
2026-05-06 09:38 39.58601 1.67007 30961 ft 405 kts 274°
2026-05-06 09:39 39.59080 1.59704 30965 ft 405 kts 274°
2026-05-06 09:39 39.59556 1.52415 30966 ft 405 kts 274°
2026-05-06 09:40 39.60026 1.45168 30972 ft 405 kts 274°
2026-05-06 09:40 39.60275 1.34284 30978 ft 402 kts 264°
2026-05-06 09:41 39.59821 1.27052 30968 ft 401 kts 265°
2026-05-06 09:41 39.59410 1.19853 30970 ft 399 kts 264°
2026-05-06 09:42 39.58995 1.12707 30962 ft 399 kts 265°
2026-05-06 09:42 39.58576 1.05526 30971 ft 399 kts 264°
2026-05-06 09:43 39.58146 0.98351 30976 ft 398 kts 264°
2026-05-06 09:43 39.57713 0.91230 30971 ft 398 kts 264°
2026-05-06 09:44 39.57280 0.84069 30982 ft 398 kts 264°
2026-05-06 09:44 39.56844 0.76935 30982 ft 397 kts 264°
2026-05-06 09:45 39.56406 0.69805 30976 ft 397 kts 264°
2026-05-06 09:45 39.55958 0.62661 30975 ft 396 kts 263°
2026-05-06 09:46 39.55506 0.55538 30977 ft 396 kts 263°
2026-05-06 09:46 39.55043 0.48424 30979 ft 396 kts 264°
2026-05-06 09:47 39.54607 0.41356 30976 ft 395 kts 264°
2026-05-06 09:47 39.54161 0.34249 30974 ft 395 kts 264°
2026-05-06 09:48 39.53704 0.27144 30970 ft 395 kts 263°
2026-05-06 09:48 39.53239 0.20058 30967 ft 394 kts 263°
2026-05-06 09:49 39.52778 0.12982 30965 ft 394 kts 264°
2026-05-06 09:49 39.52307 0.05908 30963 ft 394 kts 263°
2026-05-06 09:50 39.51842 -0.01121 30962 ft 394 kts 263°
2026-05-06 09:50 39.51366 -0.08190 30957 ft 394 kts 263°
2026-05-06 09:51 39.50886 -0.15224 30961 ft 394 kts 263°
2026-05-06 09:51 39.50403 -0.22295 30959 ft 394 kts 263°
2026-05-06 09:52 39.49910 -0.29363 30963 ft 394 kts 263°
2026-05-06 09:52 39.49415 -0.36449 30969 ft 394 kts 263°
2026-05-06 09:53 39.48877 -0.43476 30967 ft 393 kts 259°
2026-05-06 09:53 39.47172 -0.50165 30964 ft 393 kts 244°
2026-05-06 09:54 39.44056 -0.56014 30961 ft 396 kts 235°
2026-05-06 09:54 39.40728 -0.61683 30963 ft 396 kts 236°
2026-05-06 09:55 39.37390 -0.67348 30965 ft 396 kts 234°
2026-05-06 09:55 39.34040 -0.73025 30965 ft 396 kts 235°
2026-05-06 09:56 39.30702 -0.78718 30959 ft 396 kts 235°
2026-05-06 09:56 39.27388 -0.84350 30966 ft 397 kts 235°
2026-05-06 09:57 39.24035 -0.90013 30968 ft 397 kts 235°
2026-05-06 09:57 39.20674 -0.95695 30959 ft 397 kts 235°
2026-05-06 09:58 39.17322 -1.01343 30965 ft 397 kts 235°
2026-05-06 09:58 39.13960 -1.07003 30958 ft 397 kts 235°
2026-05-06 09:59 39.10622 -1.12604 30955 ft 397 kts 235°
2026-05-06 09:59 39.07253 -1.18249 30951 ft 397 kts 235°
2026-05-06 10:00 39.03875 -1.23900 30949 ft 396 kts 235°
2026-05-06 10:00 39.00531 -1.29487 30942 ft 397 kts 235°
2026-05-06 10:01 38.97146 -1.35120 30953 ft 397 kts 235°
2026-05-06 10:01 38.93762 -1.40752 30969 ft 397 kts 235°
2026-05-06 10:02 38.90406 -1.46337 30962 ft 397 kts 235°
2026-05-06 10:02 38.87018 -1.51960 30960 ft 398 kts 235°
2026-05-06 10:03 38.83619 -1.57583 30977 ft 398 kts 235°
2026-05-06 10:03 38.80251 -1.63155 30974 ft 398 kts 234°
2026-05-06 10:04 38.76842 -1.68776 30982 ft 398 kts 234°
2026-05-06 10:04 38.73432 -1.74373 30978 ft 398 kts 234°
2026-05-06 10:05 38.70029 -1.79985 30975 ft 398 kts 234°
2026-05-06 10:05 38.66622 -1.85577 30966 ft 398 kts 234°
2026-05-06 10:06 38.63205 -1.91171 30965 ft 398 kts 234°
2026-05-06 10:06 38.59793 -1.96744 30958 ft 398 kts 234°
2026-05-06 10:07 38.56394 -2.02296 30964 ft 399 kts 234°
2026-05-06 10:07 38.52951 -2.07896 30959 ft 399 kts 234°
2026-05-06 10:08 38.49538 -2.13436 30964 ft 398 kts 234°
2026-05-06 10:08 38.46115 -2.19011 30959 ft 399 kts 234°
2026-05-06 10:09 38.42686 -2.24583 30964 ft 399 kts 234°
2026-05-06 10:09 38.39250 -2.30155 30954 ft 399 kts 234°
2026-05-06 10:10 38.35800 -2.35646 30957 ft 400 kts 231°
2026-05-06 10:10 38.32597 -2.39970 30957 ft 401 kts 230°
2026-05-06 10:11 38.28746 -2.45134 30957 ft 400 kts 230°
2026-05-06 10:11 38.24917 -2.50274 30963 ft 403 kts 230°
2026-05-06 10:12 38.21069 -2.55424 30964 ft 398 kts 230°
2026-05-06 10:12 38.17235 -2.60550 30959 ft 403 kts 229°
2026-05-06 10:13 38.13351 -2.65695 30956 ft 402 kts 229°
2026-05-06 10:13 38.09493 -2.70844 30956 ft 402 kts 229°
2026-05-06 10:14 38.05632 -2.75998 30633 ft 402 kts 230°
2026-05-06 10:14 38.03730 -2.78535 30391 ft 401 kts 230°
2026-05-06 10:14 38.01806 -2.81095 30138 ft 400 kts 230°
2026-05-06 10:15 37.99884 -2.83648 29882 ft 399 kts 230°
2026-05-06 10:15 37.97972 -2.86185 29595 ft 397 kts 230°
2026-05-06 10:15 37.96059 -2.88721 28971 ft 398 kts 229°
2026-05-06 10:15 37.94150 -2.91245 28406 ft 395 kts 229°
2026-05-06 10:16 37.92250 -2.93752 27765 ft 392 kts 229°
2026-05-06 10:16 37.90394 -2.96202 27183 ft 387 kts 229°
2026-05-06 10:16 37.88544 -2.98648 26634 ft 383 kts 229°
2026-05-06 10:16 37.86700 -3.01083 26052 ft 380 kts 229°
2026-05-06 10:17 37.84869 -3.03498 25490 ft 377 kts 229°
2026-05-06 10:17 37.83033 -3.05917 24923 ft 375 kts 229°
2026-05-06 10:17 37.81244 -3.08275 24334 ft 374 kts 229°
2026-05-06 10:17 37.79447 -3.10639 23790 ft 372 kts 229°
2026-05-06 10:18 37.77652 -3.12998 23208 ft 370 kts 229°
2026-05-06 10:18 37.75878 -3.15329 22581 ft 367 kts 229°
2026-05-06 10:18 37.74114 -3.17642 22158 ft 363 kts 229°
2026-05-06 10:18 37.72358 -3.19944 21671 ft 362 kts 229°
2026-05-06 10:19 37.70625 -3.22216 21155 ft 358 kts 229°
2026-05-06 10:19 37.68894 -3.24482 20614 ft 355 kts 229°
2026-05-06 10:19 37.67222 -3.26671 20156 ft 351 kts 229°
2026-05-06 10:19 37.65515 -3.28902 19648 ft 348 kts 228°
2026-05-06 10:20 37.63836 -3.31097 19131 ft 346 kts 228°
2026-05-06 10:20 37.62163 -3.33282 18629 ft 344 kts 228°
2026-05-06 10:20 37.60502 -3.35451 18087 ft 343 kts 228°
2026-05-06 10:20 37.58872 -3.37573 17612 ft 339 kts 228°
2026-05-06 10:21 37.57239 -3.39701 17146 ft 335 kts 228°
2026-05-06 10:21 37.55626 -3.41800 16670 ft 332 kts 228°
2026-05-06 10:21 37.54021 -3.43889 16146 ft 330 kts 228°
2026-05-06 10:21 37.52433 -3.45955 15678 ft 327 kts 228°
2026-05-06 10:22 37.50852 -3.48010 15220 ft 325 kts 228°
2026-05-06 10:22 37.49281 -3.50047 14762 ft 323 kts 228°
2026-05-06 10:22 37.47715 -3.52080 14296 ft 322 kts 228°
2026-05-06 10:22 37.46157 -3.54103 13827 ft 321 kts 228°
2026-05-06 10:23 37.44601 -3.56123 13346 ft 320 kts 228°
2026-05-06 10:23 37.43055 -3.58127 12894 ft 317 kts 228°
2026-05-06 10:23 37.41519 -3.60117 12381 ft 318 kts 228°
2026-05-06 10:23 37.39993 -3.62093 11890 ft 318 kts 227°
2026-05-06 10:24 37.38547 -3.64218 11380 ft 318 kts 235°
2026-05-06 10:24 37.37261 -3.66470 10926 ft 315 kts 235°
2026-05-06 10:24 37.35969 -3.68714 10446 ft 316 kts 235°
2026-05-06 10:24 37.34711 -3.70893 10307 ft 305 kts 235°
2026-05-06 10:25 37.33477 -3.73022 10196 ft 292 kts 235°
2026-05-06 10:25 37.32308 -3.75037 9961 ft 286 kts 235°
2026-05-06 10:25 37.31156 -3.77020 9795 ft 277 kts 235°
2026-05-06 10:25 37.30021 -3.78975 9468 ft 276 kts 234°
2026-05-06 10:26 37.28891 -3.80924 9011 ft 278 kts 234°
2026-05-06 10:26 37.27753 -3.82886 8565 ft 278 kts 234°
2026-05-06 10:26 37.26620 -3.84840 8161 ft 279 kts 234°
2026-05-06 10:26 37.25480 -3.86804 7785 ft 278 kts 234°
2026-05-06 10:27 37.24344 -3.88753 7456 ft 275 kts 234°
2026-05-06 10:27 37.23215 -3.90687 7097 ft 274 kts 234°
2026-05-06 10:27 37.22099 -3.92603 6983 ft 264 kts 234°
2026-05-06 10:27 37.21010 -3.94479 6964 ft 274 kts 234°
2026-05-06 10:28 37.19879 -3.96418 6964 ft 275 kts 235°
2026-05-06 10:28 37.19105 -3.98568 6901 ft 270 kts 260°
2026-05-06 10:28 37.19206 -4.00856 6820 ft 260 kts 288°
2026-05-06 10:28 37.20086 -4.02772 6715 ft 250 kts 308°
2026-05-06 10:29 37.21216 -4.04371 6623 ft 238 kts 313°
2026-05-06 10:29 37.22322 -4.05857 6525 ft 226 kts 312°
2026-05-06 10:29 37.23343 -4.07301 6427 ft 215 kts 310°
2026-05-06 10:29 37.24275 -4.08703 6321 ft 203 kts 309°
2026-05-06 10:30 37.25061 -4.10123 6140 ft 194 kts 288°
2026-05-06 10:30 37.25088 -4.11754 6189 ft 198 kts 250°
2026-05-06 10:30 37.24285 -4.13140 6154 ft 199 kts 212°
2026-05-06 10:30 37.22967 -4.13628 6155 ft 202 kts 175°
2026-05-06 10:31 37.21665 -4.13033 6161 ft 202 kts 143°
2026-05-06 10:31 37.20594 -4.11886 6159 ft 202 kts 135°
2026-05-06 10:31 37.19703 -4.10573 6189 ft 199 kts 123°
2026-05-06 10:31 37.19108 -4.09062 6153 ft 185 kts 108°
2026-05-06 10:32 37.18810 -4.07549 6120 ft 178 kts 98°
2026-05-06 10:32 37.18691 -4.05986 5963 ft 182 kts 91°
2026-05-06 10:32 37.18675 -4.04419 5721 ft 175 kts 89°
2026-05-06 10:32 37.18684 -4.02884 5493 ft 178 kts 88°
2026-05-06 10:33 37.18696 -4.01330 5257 ft 177 kts 88°
2026-05-06 10:33 37.18707 -3.99783 5026 ft 177 kts 88°
2026-05-06 10:33 37.18717 -3.98247 4798 ft 176 kts 88°
2026-05-06 10:33 37.18729 -3.96721 4555 ft 170 kts 88°
2026-05-06 10:34 37.18739 -3.95283 4358 ft 159 kts 87°
2026-05-06 10:34 37.18748 -3.93920 4144 ft 155 kts 88°
2026-05-06 10:34 37.18759 -3.92602 3929 ft 146 kts 88°
2026-05-06 10:34 37.18771 -3.91331 3719 ft 143 kts 87°
2026-05-06 10:35 37.18780 -3.90124 3545 ft 138 kts 88°
2026-05-06 10:35 37.18789 -3.88924 3380 ft 139 kts 88°
2026-05-06 10:35 37.18798 -3.87705 3196 ft 141 kts 88°
2026-05-06 10:35 37.18806 -3.86483 3009 ft 139 kts 89°
2026-05-06 10:36 37.18816 -3.85279 2824 ft 138 kts 89°
2026-05-06 10:36 37.18825 -3.84080 2641 ft 138 kts 89°
2026-05-06 10:36 37.18834 -3.82879 2449 ft 137 kts 89°
2026-05-06 10:36 37.18843 -3.81684 2264 ft 137 kts 89°
2026-05-06 10:37 37.18852 -3.80490 2075 ft 138 kts 88°
2026-05-06 10:37 37.18863 -3.79280 1891 ft 139 kts 86°
2026-05-06 10:37 37.18868 -3.78260 1857 ft 69 kts 90°
2026-05-06 10:37 37.18870 -3.78051 1858 ft 2 kts 89°
2026-05-06 10:38 37.18872 -3.77891 1856 ft 23 kts 88°
2026-05-06 10:38 37.18868 -3.77748 1858 ft 9 kts 115°
2026-05-06 10:38 37.18728 -3.77705 1860 ft 20 kts 172°
2026-05-06 10:38 37.18689 -3.77636 1860 ft 10 kts 148°
2026-05-06 10:39 37.18651 -3.77667 1860 ft 6 kts 267°
2026-05-06 10:39 37.18651 -3.77686 1860 ft 0 kts 271°